GW5517 Weather Reports


time (UTC)temp
C
wind
direction
speed
KPH
gust
KPH
rain 1hr
cm
rain 24hr
cm
rain mn
cm
humidity
%
barometer
mb
20260505130107 19 73 3.2 14.5 0.00 0.00 0.00 68 1015.9
20260505124553 19 113 3.2 11.3 0.00 0.00 0.00 67 1015.9
20260505123047 19 0 1.6 9.7 0.00 0.00 0.00 68 1015.9
20260505121547 18 75 1.6 6.4 0.00 0.00 0.00 69 1015.7
20260505120053 18 41 1.6 9.7 0.00 0.00 0.00 72 1015.7
20260505114541 17 119 1.6 6.4 0.00 0.00 0.00 73 1015.7
20260505113039 16 95 1.6 6.4 0.00 0.00 0.00 75 1015.7
20260505111539 15 0 0.0 4.8 0.00 0.00 0.00 79 1015.6
20260505101536 13 0 0.0 3.2 0.00 0.00 0.00 82 1014.8
20260505100045 13 169 0.0 1.6 0.00 0.00 0.00 82 1014.8
20260505094544 13 0 0.0 1.6 0.00 0.00 0.00 81 1014.6
20260505093044 13 0 0.0 1.6 0.00 0.00 0.00 80 1014.5
20260505091541 14 0 0.0 1.6 0.00 0.00 0.00 80 1014.4
20260505090040 14 0 0.0 3.2 0.00 0.00 0.00 79 1014.2
20260505084536 15 0 0.0 1.6 0.00 0.00 0.00 78 1014.2
20260505083046 15 99 0.0 3.2 0.00 0.00 0.00 77 1014.1
20260505081551 15 0 0.0 3.2 0.00 0.00 0.00 77 1014.2
20260505080049 15 0 0.0 3.2 0.00 0.00 0.00 76 1014.1
20260505074543 15 0 0.0 3.2 0.00 0.00 0.00 74 1013.9
20260505073047 16 0 0.0 3.2 0.00 0.00 0.00 75 1013.9
20260505071550 16 5 0.0 6.4 0.00 0.00 0.00 73 1013.8
20260505070039 16 241 1.6 3.2 0.00 0.00 0.00 72 1013.9
20260505064544 16 0 0.0 4.8 0.00 0.00 0.00 72 1013.8
20260505063043 16 289 0.0 4.8 0.00 0.00 0.00 72 1013.7
20260505061539 17 0 0.0 4.8 0.00 0.00 0.00 71 1013.9
20260505060037 17 337 1.6 4.8 0.00 0.00 0.00 71 1013.9
20260505054553 17 80 1.6 6.4 0.00 0.00 0.00 71 1013.8
20260505053056 17 5 0.0 6.4 0.00 0.00 0.00 71 1014.1
20260505051545 17 265 0.0 14.5 0.00 0.00 0.00 71 1014.0
20260505041545 17 0 1.6 9.7 0.00 0.00 0.00 69 1014.3
20260505040045 17 136 1.6 14.5 0.00 0.00 0.00 68 1014.2
20260505034541 17 257 1.6 8.0 0.00 0.00 0.00 67 1014.1
20260505033044 18 0 1.6 9.7 0.00 0.00 0.00 67 1014.0
20260505031536 18 87 3.2 11.3 0.00 0.00 0.00 65 1013.9
20260505030045 18 101 1.6 11.3 0.00 0.00 0.00 66 1014.0
20260505024545 18 28 1.6 8.0 0.00 0.00 0.00 64 1013.9
20260505023042 18 91 1.6 14.5 0.00 0.00 0.00 64 1013.9
20260505021540 19 137 4.8 14.5 0.00 0.00 0.00 64 1013.8
20260505020037 19 58 3.2 11.3 0.00 0.00 0.00 64 1013.7
20260505014544 19 88 4.8 12.9 0.00 0.00 0.00 63 1013.8
20260505013044 20 89 3.2 14.5 0.00 0.00 0.00 64 1013.5
20260505011550 20 92 1.6 9.7 0.00 0.00 0.00 63 1013.5
20260505010045 20 113 4.8 12.9 0.00 0.00 0.00 63 1013.1
20260505004536 20 163 3.2 11.3 0.00 0.00 0.00 62 1012.8
20260505003034 21 92 3.2 12.9 0.00 0.00 0.00 62 1012.7
20260505001544 21 141 3.2 14.5 0.00 0.00 0.00 60 1012.4
20260505000044 22 87 1.6 12.9 0.00 0.00 0.00 58 1012.1
20260504234542 22 350 3.2 9.7 0.00 0.00 0.00 52 1011.8
20260504233042 22 0 0.0 1.6 0.00 0.00 0.00 52 1011.7
20260504231535 22 217 1.6 3.2 0.00 0.00 0.00 47 1011.6
20260504230046 23 0 0.0 4.8 0.00 0.00 0.00 46 1011.6
20260504224543 23 0 1.6 6.4 0.00 0.00 0.00 50 1011.6
20260504223044 23 0 1.6 16.1 0.00 0.00 0.00 43 1011.6
20260504221538 24 360 1.6 12.9 0.00 0.00 0.00 42 1011.6
20260504220036 25 262 3.2 14.5 0.00 0.00 0.00 42 1011.6
20260504214552 25 46 1.6 6.4 0.00 0.00 0.00 39 1011.7
20260504213050 25 67 1.6 14.5 0.00 0.00 0.00 44 1011.7
20260504211542 25 0 1.6 14.5 0.00 0.00 0.00 41 1011.8
20260504210040 25 72 3.2 9.7 0.00 0.00 0.00 41 1011.8
20260504204546 25 53 4.8 9.7 0.00 0.00 0.00 39 1011.7
20260504203048 25 360 3.2 14.5 0.00 0.00 0.00 41 1011.9
20260504201546 25 28 1.6 9.7 0.00 0.00 0.00 41 1012.0
20260504200049 25 339 3.2 12.9 0.00 0.00 0.00 40 1012.0
20260504194544 24 332 4.8 16.1 0.00 0.00 0.00 39 1012.2
20260504193037 24 352 4.8 17.7 0.00 0.00 0.00 42 1012.2
20260504191552 24 257 4.8 12.9 0.00 0.00 0.00 43 1012.5
20260504190052 24 142 6.4 19.3 0.00 0.00 0.00 43 1012.7
20260504184557 24 352 3.2 16.1 0.00 0.00 0.00 43 1012.8
20260504183049 23 87 4.8 14.5 0.00 0.00 0.00 44 1013.0
20260504181545 23 288 6.4 17.7 0.00 0.00 0.00 45 1013.2
20260504180037 23 50 4.8 16.1 0.00 0.00 0.00 46 1013.6
20260504174545 23 287 6.4 20.9 0.00 0.00 0.00 47 1013.6
20260504173044 23 63 4.8 16.1 0.00 0.00 0.00 44 1013.6
20260504171544 22 104 4.8 16.1 0.00 0.00 0.00 44 1013.9